Tracking 19636 objects as of 25-May-2019
HD Live streaming from Space Station
objects crossing your sky now

TITAN 3C TRANSTAGE R/B

Track TITAN 3C TRANSTAGE R/B now!


NORAD ID: 3292
Int'l Code: 1968-050J
Perigee: 33,693.7 km
Apogee: 35,035.6 km
Inclination: 2.4 °
Period: 1,363.7 minutes
Semi major axis: 40735 km
RCS: 2.5129 m2 (large)
Launch date: June 13, 1968
Source: United States (US)
Launch site: AIR FORCE EASTERN TEST RANGE (AFETR)

Note: This is a ROCKET BODY
aabbcc
Your satellite tracking list
Your tracking list is empty




NASA's NSSDC Master Catalog

Two Line Element Set (TLE):
1  3292U 68050J   19143.82820515 -.00000102 +00000-0 +00000-0 0  9998
2  3292 002.4253 060.0968 0164710 308.2648 173.6201 01.05594293019247
Source of the keplerian elements: AFSPC